Back to catalog

STARLINK-11498

AliveCommunicationsVLEO
NORAD 62276·PAYLOAD·🇺🇸 United States

Launched Dec 8, 2024 from Cape Canaveral Space Force Station

Loading…

Next Passes (next 24 hours)

TLE

FreshSource: CelesTrak SupGP

Epoch: Sep 14, 2026, 21:08 UTC

1 62276C 24237K   26257.88104167  .00018553  00000+0  14398-3 0  2574
2 62276  43.0007 356.1873 0001626 287.6807 214.5792 15.70849978    14

Track STARLINK-11498 in real time with AllMySat

Download on the App Store